OneWeb SL0011

operational
NORAD ID: 44062 Int'l Des: 2019-010 Owner: ONEWEB Country: UK Constellation: oneweb
LEOCIRCULARPOLARONEWEB_TYPE

关于 OneWeb SL0011

正在加载描述...

实时位置

正在加载3D地球...

即将过境

高度历史

Altitude vs Time

uPlot chart will show altitude changes over time

两行轨道根数

1 44062U 19010F 25258.13590290 .00000096 00000-0 21962-3 0 9996
2 44062 87.9038 314.0682 0001929 104.2261 255.9083 13.15549864315258
Epoch: Sep 15, 2025 • Age: 14 hours

当前状态

高度 1204.2 km
速度 7.25 km/s
星下点 27.41°N, 114.21°W
发射日期 Oct 14, 2021
运行时间 3.9 years
类型 internet

技术详情

分类 Payload
质量 148.00 kg
干质量 140.00 kg
总质量 148.00 kg
长度 1.30 m
直径 1.00 m
跨度 5.00 m
形状 Trapezoid+2 pan
制造商 ADST
平台类型 ARROW
阶段状态 In Orbit
所有者/国家 ONEWEB/UK

大型星座

Loading constellations...